Regional Weather Roundup
Issued by NWS Northern Indiana

Home | Current Version | Previous Version | Graphics & Text | Print | Product List | Glossary On
Versions: 1 2 3 4 5 6 7 8 9 10 11 12 13 14 15 16 17 18 19 20 21 22 23 24 25 26 27 28 29 30 31 32 33 34 35 36 37 38 39 40 41 42 43 44 45 46 47 48 49 50
848
ASUS43 KIWX 281910
RWRIWX

KIWX WEATHER ROUNDUP
NATIONAL WEATHER SERVICE NORTHERN INDIANA
300 PM EDT WED SEP 28 2016

NOTE: "FAIR" INDICATES FEW OR NO CLOUDS BELOW 12,000 FEET WITH NO
SIGNIFICANT WEATHER AND/OR OBSTRUCTIONS TO VISIBILITY.

* THESE STATIONS ARE NOT UNDER NWS QUALITY CONTROL. THEY ALSO MAY NOT
  REPORT WEATHER SUCH AS PRECIPITATION OR FOG.

INZ001>027-282000-
NORTHERN INDIANA

CITY           SKY/WX    TMP DP  RH WIND       PRES   REMARKS
GARY*          LGT RAIN  55  54  94 NW9G29    29.90S
VALPARAISO     CLOUDY    59  48  67 VRB6      29.89S
MICHIGAN CITY* CLOUDY    55  46  71 CALM      29.90R
LAPORTE*       CLOUDY    59  50  71 NE8       29.89S
KNOX*          CLOUDY    59  28  31 NE3       29.87S
SOUTH BEND     CLOUDY    57  48  72 NE3       29.90R
ELKHART*       CLOUDY   N/A N/A N/A NE6       29.88S
GOSHEN         CLOUDY    62  49  62 NE6       29.87R
MONTICELLO*    CLOUDY    62  46  54 NW6       29.86S
LOGANSPORT*    CLOUDY    59  50  72 NW6       29.86F
ROCHESTER*     MOSUNNY   61  52  72 CALM      29.87R
WARSAW*        CLOUDY    61  61 100 CALM      29.86S
ANGOLA*          N/A     64  55  72 E5        29.86R
FORT WAYNE     CLOUDY    61  52  72 NE3       29.85S
HUNTINGTON*    CLOUDY    58  54  86 CALM      29.84S
PERU/GRISSOM   CLOUDY    60  51  72 NW6       29.84R
MARION*        CLOUDY    60  52  73 CALM      29.84S

$$
INZ028>050-282000-
CENTRAL INDIANA

CITY           SKY/WX    TMP DP  RH WIND       PRES   REMARKS
LAFAYETTE      CLOUDY    62  48  60 NW13      29.86S
KOKOMO*        CLOUDY    61  54  77 N9        29.85S
MUNCIE*        PTSUNNY   63  52  67 MISG      29.83F
INDIANAPOLIS   CLOUDY    57  51  80 S6        29.82F THUNDER

$$
MIZ043>046-050>051-056>058-064>065-071>073-077>080-282000-
SOUTHWEST LOWER MICHIGAN

CITY           SKY/WX    TMP DP  RH WIND       PRES   REMARKS
BATTLE CREEK   CLOUDY    61  47  59 NE16G25   29.90S
BENTON HARBOR  CLOUDY    59  50  72 NE5       29.90R
COLDWATER*     CLOUDY    62  48  61 NE10      29.87S
HILLSDALE*     CLOUDY    61  48  63 NE13      29.87F
HOLLAND        CLOUDY    64  50  60 NE12G18   29.92S
GRAND RAPIDS   CLOUDY    64  48  56 E14       29.93S
KALAMAZOO      PTSUNNY   65  47  52 E9        29.90S
STURGIS*       CLOUDY    63  50  62 N6        29.86F
THREE RIVERS*  PTSUNNY   62  50  66 NW6       29.88S

$$
OHZ001>008-015>018-024>025-282000-
NORTHWEST OHIO

CITY           SKY/WX    TMP DP  RH WIND       PRES   REMARKS
WAUSEON*       CLOUDY    59  52  77 NE8       29.88R
DEFIANCE       CLOUDY    65  49  56 NE8       29.85S
FINDLAY        PTSUNNY   65  53  65 SE12      29.85F
TOLEDO EXPRESS PTSUNNY   62  55  77 SE9       29.87F
TOLEDO METCALF PTSUNNY   63  56  78 E10       29.88F
LIMA           CLOUDY    62  55  77 SE9       29.85F

$$
AND FOR LAKE MICHIGAN COASTAL AND OPEN LAKE BUOY OBSERVATIONS

STATION/POSITION TEMP    WIND        PRES    VSBY  WAVE
                 AIR SEA DIR/SP/G                  HT/PER
                 (F)     (DEG/KT/KT) (MB)    (MI)  (FT/S)
CALUMET HARBOR    53     300/ 12/ 20 1012.4R
MICHIGAN CITY     57      30/ 14/ 17   N/A
BURNS HARBOR      59      50/ 14/ 18 1012.5R
SAINT JOSEPH      58      20/  6/  9 1013.2
SOUTH LAKE BUOY   61 69   50/ 19/ 23 1012.9R         2/ 3
4 MI NW BRIDGMAN  57 65   50/  8/ 12 1012.6          3/ 4
MICHIGAN CITY     58 66   50/ 14/ 17   N/A           4/ 4

$$
&&




USA.gov is the U.S. government's official web portal to all federal, state and local government web resources and services.